Location: Observatoire du C�gep de Trois-Rivi�res � Champlain
(46.4753°N, 72.3231°W)
Time: 09:57:48
(UTC-05:00)

ISS - Visible Passes

Search period start: 16 December 2017 00:00
Search period end: 26 December 2017 00:00
Orbit: 402 x 406 km, 51.6° (Epoch: 16 December)

Date Brightness Start Highest point End Pass type
(mag) Time Alt. Az. Time Alt. Az. Time Alt. Az.
16 Dec -1.6 17:16:20 10° W 17:19:11 27° SW 17:22:01 10° SSE visible
18 Dec -0.5 17:09:12 10° WSW 17:10:50 13° SW 17:12:29 10° SSW visible
25 Dec 0.1 06:15:08 10° SE 06:15:20 10° SE 06:15:31 10° SE visible
